GSAT 0205 (PRN E24)

Last updated on Sun May 29 2016 01:47:02 GMT+0000 (Coordinated Universal Time)

1 40889U 15045A 16147.45644932 -.00000039 00000-0 00000-0 0 9993 2 40889 57.2685 322.6347 0003762 22.4148 337.5963 1.70474691 4391
UTC large
Height (km)
Speed (km/s)
/
Latitude / Longitude
Inclination (degrees)
Orbital Period (minutes)
Azimuth
Elevation
Range (km)
Doppler Factor

Next 0 passes for location: London (51.5072 / 0.1276)

Sorry there are no passes over London.